Location: Waco, TX
(31.5480°N, 97.1670°W)
Time: 03:40:18
(UTC-06:00)

ISS - Pass Details

Date: 21 January 2019
Orbit: 404 x 407 km, 51.6° (Epoch: 16 January)

Event Time Altitude Azimuth Distance (km) Brightness Sun altitude
Rises 04:22:33 0° 291° (WNW) 2,323 - -39.1°
Reaches altitude 10° 04:25:44 10° 257° (WSW) 1,459 - -38.4°
Maximum altitude 04:26:59 12° 235° (SW) 1,356 - -38.1°
Drops below altitude 10° 04:28:14 10° 212° (SSW) 1,455 - -37.9°
Sets 04:31:23 0° 178° (S) 2,308 - -37.2°
